Regional Weather Roundup
Issued by NWS

Home | Current Version | Previous Version | Graphics & Text | Print | Product List | Glossary On
Versions: 1 2 3 4 5 6 7 8 9 10 11 12 13 14 15 16 17 18 19 20 21 22 23 24 25 26 27 28 29 30 31 32 33 34 35 36 37 38 39 40 41 42 43 44 45 46 47 48 49 50
000
ASUS43 KMPX 091910
RWRMN
WEATHER ROUNDUP FOR MINNESOTA
NATIONAL WEATHER SERVICE TWIN CITIES/CHANHASSEN MN
200 PM CDT WED JUL 09 2014


NOTE: "FAIR" INDICATES FEW OR NO CLOUDS BELOW 12,000 FEET WITH NO
SIGNIFICANT WEATHER AND/OR OBSTRUCTIONS TO VISIBILITY. N/A MEANS
CURRENT SKY AND/OR WEATHER CONDITIONS ARE NOT AVAILABLE.

MNZ060>063-068>070-092000-
   Twin Cities Metro

CITY           SKY/WX    TMP DP  RH WIND       PRES   REMARKS
TWIN CITIES    PTSUNNY   75  53  46 VRB5      30.00S
ST PAUL        PTSUNNY   75  54  47 VRB6      30.00S
CRYSTAL        PTSUNNY   75  53  46 W8        29.99S
BLAINE         MOSUNNY   75  55  50 W6        30.00F
LAKEVILLE      MOSUNNY   73  55  53 W5        30.01S
EDEN PRAIRIE   SUNNY     76  55  48 VRB3      29.99F
SOUTH ST PAUL  CLOUDY    73  52  46 CALM      30.00S
LAKE ELMO      FAIR      73  55  53 W7        30.01F
$$
MNZ001>005-007-008-013>017-022>024-027-028-092000-
   Northwest Minnesota

CITY           SKY/WX    TMP DP  RH WIND       PRES   REMARKS
BEMIDJI        PTSUNNY   69  51  53 NW6       30.01F
HALLOCK        MOSUNNY   70  50  49 NW6G17    30.02F
ROSEAU         MOSUNNY   70  57  64 W3        30.01F
WARROAD        MOSUNNY   66  55  68 E8        30.01F
THIEF RVR FALL PTSUNNY   66  50  55 CALM      30.02F
CROOKSTON      MOSUNNY   70  52  52 NE6       30.03F
FOSSTON        PTSUNNY   70  50  49 NW6       30.03F
DETROIT LAKES  MOSUNNY   70  50  49 NW7       30.04F
MOORHEAD       SUNNY     72  50  46 NW14      30.03F
PARK RAPIDS    MOSUNNY   72  50  45 W9        30.01S
$$
MNZ006-009>011-018-025>026-092000-
   North Central Minnesota

CITY           SKY/WX    TMP DP  RH WIND       PRES   REMARKS
BAUDETTE       SUNNY     69  49  48 VRB5      30.01F
FLAG ISLAND    MOSUNNY   66  50  55 CALM      29.99F
INTL FALLS     PTSUNNY   67  49  52 N9        29.99F
WASKISH        SUNNY     70  55  60 W7        30.01F
LONGVILLE      SUNNY     72  52  49 NW7       30.01S
GRAND RAPIDS   PTSUNNY   68  48  49 N8        30.00F
CRANE LAKE     MOSUNNY   64  46  52 NW6       30.01F
ORR            MOSUNNY   70  46  43 N5        29.98S
COOK           MOSUNNY   68  48  49 NW7       30.00F
$$
MNZ012-019>021-037-092000-
   Northeast Minnesota

CITY           SKY/WX    TMP DP  RH WIND       PRES   REMARKS
DULUTH         MOSUNNY   70  48  45 VRB7      29.99S
ELY            MOSUNNY   64  45  48 NE5       29.99F
HIBBING        MOSUNNY   70  49  47 N8        29.99F
EVELETH        MOSUNNY   68  45  42 NW9G16    30.00F
DULUTH HARBOR  MOSUNNY   70  48  46 E3        29.98F
TWO HARBORS    PTSUNNY   68  48  49 NW8       29.97S
SILVER BAY     SUNNY     63  52  67 SE7       29.97S
GRAND MARAIS     N/A     53  45  74 W8        29.97R
G MARAIS ARPRT MOSUNNY   63  43  48 N6        29.98S
$$
MNZ029>031-032-039>041-046>048-054>057-064-092000-
   West Central Minnesota

CITY           SKY/WX    TMP DP  RH WIND       PRES   REMARKS
FERGUS FALLS   MOSUNNY   72  50  46 NW13      30.02F
WHEATON        SUNNY     72  54  53 NW12      30.03F
MORRIS         SUNNY     75  55  50 N7        30.01F
ALEXANDRIA     SUNNY     73  49  42 NW13      30.03F
ELBOW LAKE     FAIR      72  54  53 N13       30.02
WADENA         MOSUNNY   70  55  60 NW8       30.02S
GLENWOOD       SUNNY     73  52  46 NW12G17   30.03S
APPLETON       MOSUNNY   77  50  38 N9        30.01F
BENSON         MOSUNNY   77  54  44 N12       30.01F
ORTONVILLE     MOSUNNY   75  52  43 N8        30.02F
MADISON        SUNNY     79  55  44 NW7       30.02F
WILLMAR        FAIR      75  52  43 N10G17    30.02F
$$
MNZ033>034-036-042>043-049>051-058-059-092000-
   Central Minnesota

CITY           SKY/WX    TMP DP  RH WIND       PRES   REMARKS
ST CLOUD       MOSUNNY   78  52  40 W8        29.99F
SAUK CENTRE    MOCLDY    73  51  46 NW8       30.01F
PAYNESVILLE    MOSUNNY   72  52  48 W8        30.01F
AITKIN         MOSUNNY   75  54  46 NW5       29.98F
PINE RIVER     PTSUNNY   72  54  53 NW7       30.04S
BRAINERD       PTSUNNY   76  52  43 N8        30.01S
STAPLES        MOSUNNY   73  52  46 NW10      30.01F
LONG PRAIRIE   FAIR      72  52  49 W5        30.02S
LITTLE FALLS   MOSUNNY   73  48  40 W10G16    30.00F
LITCHFIELD     MOSUNNY   75  52  43 N7        30.01S
BUFFALO        MOSUNNY   74  54  49 W6        30.01S
MAPLE LAKE     SUNNY     75  57  53 CALM      30.01F
$$
MNZ037-044-045-052-053-092000-
   East Central Minnesota

CITY           SKY/WX    TMP DP  RH WIND       PRES   REMARKS
PRINCETON      MOSUNNY   75  55  50 W7        30.00S
MORA           SUNNY     73  50  43 W9        30.01S
CAMBRIDGE      PTSUNNY   73  55  53 CALM      29.98S
RUSH CITY      MOSUNNY   73  53  49 N5        29.99F
MOOSE LAKE     PTSUNNY   70  52  52 N3        29.97F
HINCKLEY       MOCLDY    72  52  49 NW6       29.99S
CLOQUET        MOSUNNY   72  46  40 N10       29.99F
MCGREGOR       MOSUNNY   72  52  49 NW8       30.00S
$$
MNZ071>073-080-081-089-090-097-098-092000-
   Southwest Minnesota

CITY           SKY/WX    TMP DP  RH WIND       PRES   REMARKS
MONTEVIDEO     MOSUNNY   79  54  41 N9        30.02F
GRANITE FALLS  MOSUNNY   77  52  42 W9        30.03S
CANBY          SUNNY     78  53  42 NE6       30.04F
MARSHALL       MOSUNNY   75  54  46 MISG      30.02F
REDWOOD FALLS  SUNNY     80  51  36 NW8       30.00F
OLIVIA         MOSUNNY   77  50  38 NW13      30.01R
PIPESTONE      MOSUNNY   77  54  44 N3        30.04F
WINDOM         SUNNY     77  54  44 NW10      30.04S
WORTHINGTON    MOSUNNY   75  55  50 W9        30.05F
JACKSON        MOSUNNY   77  52  41 NW6G17    30.04S
TRACY          MOSUNNY   78  55  44 NW9       30.03F
SLAYTON        PTSUNNY   76  50  40 CALM      30.05S
$$
MNZ065>067-074>077-082>085-091>093-092000-
   South Central Minnesota

CITY           SKY/WX    TMP DP  RH WIND       PRES   REMARKS
MANKATO        MOSUNNY   77  52  41 W10       30.00F
NEW ULM        SUNNY     79  54  41 NW13      29.99F
ST JAMES       MOSUNNY   79  50  36 W10       30.02S
FAIRMONT       PTSUNNY   79  54  41 N12G17    30.02F
GLENCOE        SUNNY     78  48  35 W12       29.99S
FARIBAULT      SUNNY     79  48  34 W3        30.02S
OWATONNA       SUNNY     75  54  46 NW5       30.02S
WASECA         MOSUNNY   75  50  41 W10       30.03S
ALBERT LEA     PTSUNNY   73  52  46 W7        30.02S
$$
MNZ078>079-086>088-094>096-092000-
   Southeast Minnesota

CITY           SKY/WX    TMP DP  RH WIND       PRES   REMARKS
ROCHESTER      MOSUNNY   73  55  53 NW9       30.03F
RED WING       MOSUNNY   75  52  43 NW9       30.00S
STANTON        PTSUNNY   74  53  48 N7        29.99F
DODGE CENTER   MOSUNNY   73  55  53 NW7       30.03S
WINONA         MOSUNNY   73  54  49 N5        30.01S
AUSTIN         MOSUNNY   73  48  40 NW3       30.02S
PRESTON        PTSUNNY   71  56  58 N7        30.03F
$$
ABBREVIATIONS USED IN REMARKS
   TC - TEMPERATURES IN CELSIUS
  WCI - WIND CHILL INDEX
   HX - HEAT INDEX
  VSB - VISIBILITY
$$



USA.gov is the U.S. government's official web portal to all federal, state and local government web resources and services.